Theta_e
288 289 289 290 289 288 288 288 288 288 290 289 286 286 290 290 284 282 287 289 287 290 292 294 297 299 300 301 303 303 304 304 305 304 304 304 305 305 305 306 307 307 307 308 310 312 310 309 309 309 308 308 309 310 310 310 310 310 309 308 307 306 306 306 306 306 306 305 305 305 304 304 304 303 303 303 303 303 303 302 302 302 301 301 300 300 300
287 288 289 289 288 287 287 288 288 289 289 288 288 288 290 290 288 290 290 289 288 292 293 295 297 299 301 300 302 303 303 304 305 304 304 304 305 304 304 305 306 307 308 308 309 310 310 308 307 307 307 306 307 309 309 309 308 308 308 307 305 305 305 306 306 305 305 305 304 304 303 302 302 303 302 302 302 302 302 302 302 301 301 301 300 299 298
284 287 288 288 287 286 285 287 288 288 289 289 289 289 289 290 289 290 290 288 287 295 298 298 300 301 302 300 299 300 302 302 302 303 303 304 304 304 305 306 306 307 307 307 306 306 307 308 308 306 307 306 307 308 308 307 306 306 305 306 305 305 305 305 305 304 304 304 304 303 302 302 302 302 302 302 302 302 302 301 301 301 301 300 299 299 298
281 285 286 286 287 286 285 285 287 287 287 284 287 285 289 288 287 289 288 286 287 294 298 300 300 300 300 299 300 301 301 302 302 303 303 304 304 304 305 306 306 306 305 305 305 305 306 307 308 307 307 306 306 306 307 306 305 305 305 305 304 305 305 305 304 304 304 303 303 302 302 301 301 301 302 301 301 301 301 300 300 301 300 299 299 299 298
280 285 286 285 284 283 280 282 285 287 288 290 290 291 291 291 291 286 284 285 293 295 298 297 297 298 299 299 300 300 301 303 303 303 303 304 304 305 305 305 305 305 305 305 306 308 306 306 304 306 307 305 306 306 306 305 305 304 304 305 305 305 304 304 303 304 303 303 302 301 301 301 301 301 301 301 300 299 299 300 300 299 298 298 298 298 298
279 283 284 284 280 274 276 288 292 292 288 289 288 287 289 292 292 289 292 293 295 296 297 297 297 298 298 301 303 304 304 304 305 304 304 305 305 305 305 305 305 306 306 307 307 308 309 308 306 307 307 306 307 307 306 305 304 304 304 304 305 304 303 303 303 303 303 302 301 300 301 300 300 300 300 299 299 299 299 298 298 297 297 297 297 297 297
278 282 282 278 272 275 286 291 294 294 294 294 292 292 292 292 293 293 292 295 295 296 297 299 299 301 301 303 302 302 304 305 303 304 304 304 304 305 305 305 305 307 308 309 308 309 309 308 309 307 305 307 307 306 305 304 304 304 304 303 304 303 303 302 303 302 302 301 300 300 300 300 299 299 298 298 298 297 297 297 296 295 295 295 295 296 296
282 280 278 271 273 285 290 291 293 294 293 292 291 289 291 293 293 294 293 294 295 296 297 297 300 301 302 303 302 303 304 305 305 304 304 304 305 304 305 306 308 308 308 308 308 309 309 308 306 305 305 306 306 304 304 304 304 303 304 303 303 302 302 302 302 302 301 300 300 299 299 299 298 298 298 297 297 297 297 296 296 295 295 295 294 295 296
276 278 278 277 284 284 286 286 288 290 287 288 286 281 286 294 294 294 292 293 294 295 297 299 300 301 301 299 300 303 303 303 304 304 304 305 306 307 308 308 308 309 309 307 308 308 308 307 305 305 306 305 304 304 303 303 303 303 303 302 301 301 301 301 301 301 301 300 299 299 299 298 298 298 297 296 297 297 296 295 295 294 294 294 294 294 295
283 278 277 278 277 273 279 289 293 294 295 295 294 288 285 294 296 296 294 293 295 296 296 296 298 300 295 291 294 300 302 303 304 306 307 307 307 307 307 307 307 307 308 307 306 306 306 307 306 306 306 305 304 302 302 302 302 302 302 301 301 300 300 301 301 301 301 300 299 298 298 298 297 297 297 297 297 297 296 294 294 294 294 294 294 294 294
280 278 276 275 272 277 285 288 292 295 297 295 294 286 282 292 294 297 295 294 295 296 295 296 298 294 289 291 294 300 302 303 305 305 305 305 307 307 307 306 306 306 307 306 305 305 305 305 305 307 305 304 303 302 302 302 302 301 301 301 300 299 300 301 301 301 300 300 299 299 298 297 297 296 297 297 297 297 296 295 294 294 294 293 293 293 294
279 278 276 273 278 278 287 293 294 294 295 296 289 277 278 292 295 296 296 294 294 296 296 296 295 292 288 291 296 302 303 304 306 305 305 305 305 305 305 306 306 305 305 304 305 305 304 305 307 306 305 303 302 302 302 302 301 301 300 300 299 299 300 301 302 301 301 300 299 299 298 297 297 297 297 297 296 296 295 294 293 293 293 292 292 292 293
280 279 277 280 280 287 292 292 294 294 296 292 280 275 283 292 294 295 296 295 296 296 295 296 292 295 297 299 303 305 304 305 306 307 307 306 305 304 304 305 302 303 304 304 303 305 304 305 306 305 304 303 302 302 302 301 301 301 300 300 299 299 300 301 301 300 300 301 300 299 298 297 297 297 297 297 296 295 294 293 293 292 292 292 292 292 293
278 279 277 278 282 288 292 295 293 296 289 279 279 289 294 295 294 296 296 295 296 296 295 294 296 298 302 303 303 302 304 305 305 305 305 304 304 304 304 304 302 303 303 305 305 304 303 304 304 304 303 302 302 302 301 300 301 301 300 298 299 299 299 299 300 300 300 300 300 299 299 298 297 296 297 296 295 294 294 293 292 291 291 291 291 291 292
281 280 277 276 272 285 293 294 291 294 282 284 291 293 295 296 296 295 295 294 294 296 294 296 295 299 300 302 302 303 304 304 303 303 303 303 301 301 301 302 303 303 303 303 303 304 303 303 304 303 303 302 301 301 300 301 302 301 299 299 299 299 299 299 300 299 299 300 299 299 298 298 296 294 295 294 294 294 293 292 290 289 289 290 290 291 292
276 276 275 275 283 288 294 294 285 288 290 295 295 295 292 295 295 295 294 294 294 295 294 296 294 297 298 302 303 303 303 303 302 302 301 301 300 301 302 302 302 302 302 303 303 304 302 302 303 303 303 301 301 300 300 302 301 300 299 298 298 299 298 299 299 299 298 298 299 299 298 297 296 294 294 294 293 293 292 291 289 288 288 289 290 290 290
281 279 282 287 289 292 292 294 295 296 296 298 298 296 294 293 294 296 295 295 295 296 296 295 296 296 298 301 303 302 302 302 301 300 300 300 301 301 302 301 302 302 302 302 303 304 303 302 302 302 303 302 300 300 302 301 300 299 299 298 299 298 298 298 298 298 299 299 298 298 298 297 295 294 293 293 292 292 291 290 289 288 288 288 288 288 289
289 290 290 292 291 292 294 296 297 296 295 298 299 297 293 296 296 297 295 296 296 296 297 296 296 298 299 300 302 301 300 300 299 300 300 301 302 302 302 302 303 302 303 303 303 304 303 302 302 303 302 302 300 301 301 301 300 299 299 298 297 297 297 297 298 298 298 298 297 297 298 297 296 295 293 292 291 290 290 290 289 288 288 287 288 288 289
283 279 289 290 292 293 292 294 296 297 297 296 294 294 296 298 299 298 298 298 296 295 296 295 295 296 298 300 300 299 299 299 300 300 300 301 301 301 301 302 302 302 302 303 303 304 303 303 302 302 302 301 302 302 300 301 300 300 299 298 297 297 297 298 298 298 297 297 296 296 297 296 296 295 294 293 291 289 289 288 288 288 287 286 286 286 287
283 282 288 290 292 292 294 294 293 295 295 295 297 299 299 298 299 299 298 299 297 295 295 294 294 297 299 299 298 298 298 299 300 299 300 300 301 302 303 303 302 302 302 302 303 304 304 304 303 302 301 300 302 302 301 301 300 300 298 297 297 297 297 297 297 297 297 291 293 296 295 295 294 293 293 293 290 289 288 287 286 286 285 286 286 285 286
285 287 289 290 292 293 293 293 295 295 295 295 296 298 298 299 298 297 297 298 298 297 296 298 299 297 297 297 298 298 299 300 300 300 300 300 301 302 301 302 302 302 302 301 302 303 304 304 303 301 301 301 301 302 301 301 301 299 298 297 297 297 297 298 297 295 296 296 296 295 295 295 295 294 292 292 291 290 290 289 287 285 285 286 286 286 286
281 282 286 291 284 284 290 292 293 295 297 298 296 296 297 297 296 295 294 295 297 296 296 297 299 297 297 299 299 298 299 300 300 300 300 300 301 301 302 302 302 302 302 303 303 303 303 303 302 301 301 301 302 301 301 300 300 299 298 298 298 297 297 297 296 295 296 296 296 294 295 294 294 294 290 290 291 291 289 289 288 287 286 286 286 286 286
281 287 290 291 290 290 292 294 296 296 297 298 297 296 297 297 296 295 294 294 294 293 296 298 297 297 297 297 299 299 299 300 300 300 300 299 300 300 301 301 302 302 303 303 304 302 301 300 300 300 300 300 301 301 301 301 300 299 299 298 297 297 296 296 294 295 295 295 294 294 294 294 294 292 293 293 290 289 289 289 288 287 287 287 287 286 286
289 290 290 292 291 290 293 294 297 297 297 298 297 297 298 298 296 296 295 295 294 294 295 298 299 297 298 299 299 299 300 301 301 300 300 300 300 301 301 301 302 302 303 301 301 301 300 299 299 300 299 300 301 301 301 300 300 299 299 298 298 297 297 296 296 294 295 295 294 294 294 294 293 292 292 291 291 290 289 289 289 288 288 287 287 286 286
288 293 294 294 294 295 297 297 297 298 299 299 297 295 296 296 296 297 296 296 296 296 295 296 298 299 299 299 300 299 299 299 299 298 299 300 299 301 301 301 302 302 302 301 299 298 298 299 300 300 300 301 301 300 300 300 300 299 299 298 298 297 297 296 296 295 294 295 294 294 293 292 293 292 292 290 289 289 290 289 289 288 288 288 287 286 286
294 294 295 295 295 295 296 296 295 296 298 297 296 296 297 297 297 297 297 297 297 298 298 297 297 299 300 300 300 300 299 299 299 299 300 300 301 301 301 302 302 301 300 299 298 298 298 299 300 301 300 301 301 302 300 300 300 299 298 298 298 298 297 296 297 296 296 295 294 294 294 293 293 293 291 292 290 289 288 288 289 289 289 288 287 286 287
292 295 294 292 291 293 295 292 291 296 296 297 296 296 297 298 297 298 299 299 299 299 299 298 298 300 300 301 300 300 299 299 299 299 300 301 300 301 302 303 301 299 298 297 298 296 296 299 300 300 300 302 303 302 301 300 300 299 298 297 296 290 284 290 297 296 296 295 294 294 293 293 293 292 292 291 290 289 288 286 286 286 286 287 288 287 286
295 295 296 290 289 291 293 296 296 296 296 296 296 296 297 297 297 298 299 297 298 298 298 299 299 299 298 299 299 298 299 299 298 299 299 300 301 301 302 302 301 299 296 296 296 298 299 300 301 301 301 302 303 302 300 300 300 299 298 297 296 297 297 295 297 296 296 295 295 294 293 293 292 293 292 291 290 290 288 287 287 286 286 287 287 287 287
295 295 296 296 296 295 295 297 297 297 296 297 298 298 297 296 296 298 298 297 296 296 297 297 299 299 299 299 299 298 298 298 298 299 299 300 301 301 301 301 300 299 297 296 297 298 299 301 300 301 301 302 303 301 301 299 299 298 297 297 296 296 296 297 297 297 296 296 295 294 289 291 292 293 292 291 291 291 289 288 287 287 287 287 287 287 287
294 293 294 294 295 296 295 294 294 295 295 296 296 297 297 296 295 296 298 294 296 296 297 298 298 298 299 298 299 299 298 298 298 299 300 300 301 301 301 300 299 298 297 296 296 298 300 301 301 300 301 302 302 302 301 300 300 299 298 298 297 296 297 297 298 298 297 296 294 289 293 293 294 293 291 291 291 290 289 288 287 286 286 286 286 285 285
292 294 294 294 294 295 294 293 294 295 295 296 296 295 296 296 296 297 297 294 296 296 297 297 297 298 299 299 299 300 299 299 299 300 300 301 301 300 299 298 297 295 293 293 294 297 299 299 300 300 301 300 300 300 300 299 299 299 299 297 298 289 285 288 290 296 296 296 294 295 294 294 293 291 290 290 290 290 290 289 287 286 286 286 286 285 285
293 293 293 293 293 293 293 294 293 293 294 295 294 293 294 295 295 297 297 295 296 297 297 297 296 296 297 299 299 299 299 299 299 300 300 300 300 299 298 297 296 292 295 294 294 295 296 297 297 299 300 300 299 298 299 298 296 296 297 295 297 297 291 286 293 294 294 294 295 294 293 292 293 292 290 290 291 290 289 289 288 287 286 286 285 286 286
290 289 289 291 291 291 291 291 291 291 293 291 289 291 294 295 295 290 293 295 296 296 296 295 295 296 298 299 299 299 299 299 299 299 299 298 298 298 297 297 297 296 295 295 295 296 295 296 298 300 300 300 300 300 301 296 296 297 298 298 298 297 292 289 290 294 294 295 295 295 293 293 293 293 291 291 290 291 290 289 289 287 287 286 286 286 286
290 289 289 290 290 288 288 288 290 291 292 293 295 294 294 295 291 293 293 295 296 296 295 295 296 298 299 299 298 297 298 297 295 296 298 298 298 298 298 298 297 296 296 296 295 295 296 296 297 298 299 300 300 300 301 300 298 297 298 299 298 297 295 297 295 295 296 295 296 293 294 292 293 292 291 291 291 292 290 289 289 288 288 287 287 287 286
293 293 293 292 291 290 290 290 289 289 290 290 292 294 295 293 295 295 296 296 295 295 296 297 298 298 298 298 297 297 296 295 294 294 295 296 297 296 297 297 296 296 295 296 296 296 296 295 295 297 299 300 300 300 301 299 298 298 298 298 297 296 294 295 295 296 295 295 297 296 295 294 294 291 291 292 292 292 291 290 289 289 289 288 288 288 286
293 292 291 291 291 291 290 290 289 289 289 289 291 291 293 294 295 295 295 295 295 296 296 297 297 297 296 296 296 296 295 294 294 294 293 294 294 295 295 295 295 294 294 295 297 297 296 296 287 286 297 298 300 301 299 295 297 299 298 296 297 296 296 295 296 297 296 296 295 296 296 291 290 292 292 293 292 293 292 291 291 290 289 289 289 288 288
293 292 291 291 291 290 290 289 288 288 288 288 289 290 291 292 292 293 293 293 294 296 296 296 295 296 296 296 296 296 296 296 295 294 294 294 295 295 294 293 293 293 292 293 295 298 297 298 288 288 297 299 299 298 295 285 296 297 299 299 299 298 297 298 298 296 295 295 295 296 292 292 296 295 293 294 292 291 291 292 290 291 291 290 289 290 289
292 292 292 291 291 290 289 289 288 288 288 288 288 289 289 291 292 291 291 291 292 294 295 295 295 295 295 295 295 294 294 294 294 294 294 295 295 294 294 294 293 293 292 293 297 298 298 295 290 295 300 300 299 298 293 286 285 296 299 299 299 300 299 298 296 297 295 296 295 296 296 296 296 295 296 294 293 292 291 291 291 291 291 290 290 289 289
291 291 292 292 291 290 290 290 289 288 287 286 287 287 289 289 290 290 289 289 290 291 294 295 295 294 294 294 294 294 293 294 294 294 294 294 295 294 293 295 295 296 296 297 298 297 296 295 297 298 298 299 300 300 295 289 288 299 299 300 300 298 298 299 300 299 298 298 297 297 297 296 296 295 295 293 293 293 291 291 292 292 293 292 291 290 290
289 290 290 290 290 290 290 289 289 288 288 287 287 286 287 288 289 289 289 289 289 289 291 293 294 293 293 293 293 294 294 295 295 294 294 294 294 293 293 295 296 297 296 291 298 298 293 288 294 298 298 299 299 299 297 294 293 298 299 299 299 299 298 298 298 297 295 296 295 291 295 294 295 294 294 294 295 293 294 294 294 293 293 293 293 292 291
291 291 290 290 290 290 289 289 288 288 288 288 287 287 287 287 288 287 287 287 289 290 290 291 292 292 292 292 292 293 294 295 295 295 295 294 293 292 291 291 295 296 296 296 297 296 295 292 296 297 297 298 298 292 298 294 298 300 299 298 298 298 298 298 297 296 296 295 296 296 296 297 295 295 294 296 296 295 294 294 294 294 294 293 293 293 292
292 292 292 291 291 291 291 290 289 288 288 289 289 289 288 288 288 287 288 289 290 290 290 290 287 290 292 292 292 292 293 293 294 294 294 294 293 292 291 292 294 295 287 292 294 293 297 297 296 291 293 294 296 289 286 295 298 298 299 298 297 297 297 297 297 297 296 295 295 296 296 296 296 296 295 296 296 295 294 295 295 295 295 295 294 294 294
292 292 291 291 291 291 291 291 289 288 287 288 289 289 289 290 289 289 289 289 289 289 289 289 289 288 290 292 292 292 292 293 293 293 293 293 293 293 292 292 294 293 286 293 294 296 296 295 294 292 286 287 290 286 287 297 297 297 297 297 296 296 296 296 297 297 297 296 294 293 294 295 295 296 295 296 296 296 296 295 295 295 295 296 295 295 295
292 292 291 291 291 291 291 291 290 289 288 288 289 289 290 289 289 288 288 288 288 288 289 289 289 289 289 290 289 290 291 293 294 293 293 292 293 293 293 293 293 290 286 291 294 294 294 292 289 285 284 284 285 285 295 297 297 296 297 297 297 296 295 296 296 296 296 295 295 294 292 290 291 293 294 294 294 295 294 295 295 295 295 296 296 296 295
291 291 291 291 292 292 291 291 290 289 289 289 289 289 289 289 289 289 289 288 288 288 288 289 289 289 290 290 289 289 290 291 292 293 292 290 289 289 291 288 291 290 289 287 292 293 292 288 285 283 284 284 285 286 297 297 296 296 297 296 297 296 296 295 294 294 294 294 294 293 292 291 290 290 292 291 290 293 293 293 295 295 295 295 295 295 296
291 291 291 288 291 291 292 292 292 291 290 289 289 288 289 289 288 289 289 288 288 288 288 288 288 288 289 290 291 291 291 290 291 292 291 290 288 289 290 287 288 286 286 286 290 290 289 284 284 284 284 285 285 294 296 296 295 296 296 295 295 293 294 294 294 294 293 293 292 292 292 292 291 290 289 289 289 289 290 290 292 294 294 295 295 294 294
291 291 291 291 291 292 292 292 292 291 290 289 288 287 288 288 288 288 288 288 288 287 287 287 287 287 288 289 289 289 289 290 291 291 292 293 292 289 287 285 285 284 286 290 289 287 285 285 284 284 284 284 285 295 295 295 294 294 293 293 292 293 292 292 292 293 294 292 291 291 289 290 290 290 289 288 288 288 288 288 288 291 292 292 293 293 292
291 290 290 291 291 291 291 291 290 289 288 288 288 288 288 289 289 289 289 288 288 288 288 287 287 287 287 288 289 289 288 287 286 288 290 290 290 291 290 288 286 284 285 286 287 285 283 284 284 284 284 285 291 294 293 292 291 291 291 290 290 290 290 290 290 291 291 291 291 291 291 291 291 290 290 289 288 288 288 287 287 287 289 291 293 293 293
291 291 291 291 291 291 290 290 289 288 288 289 288 289 289 289 289 288 288 288 288 288 287 288 288 288 288 288 288 289 289 290 288 286 289 289 289 288 288 286 284 283 286 287 289 289 285 283 284 284 284 285 290 291 290 290 288 287 288 288 288 288 287 287 287 287 289 289 289 288 289 288 289 289 289 288 288 288 288 288 288 287 287 288 289 290 291
291 290 290 290 290 290 290 289 288 289 289 288 289 289 289 289 287 286 287 287 287 286 287 287 287 287 288 288 289 288 289 289 289 289 289 289 288 288 287 287 285 283 283 286 288 287 284 284 284 284 285 289 289 288 287 287 287 286 286 285 285 286 285 285 284 284 286 287 287 286 286 287 287 286 287 287 287 287 287 288 288 286 284 286 286 287 289
290 290 290 289 290 289 290 290 289 289 289 289 289 288 288 287 286 285 285 285 286 285 285 286 286 286 287 287 288 288 288 288 287 284 287 287 287 285 284 285 286 284 284 285 285 286 286 286 285 285 285 287 287 286 285 285 285 284 283 284 284 284 284 284 285 286 285 285 286 286 285 286 286 286 286 286 286 286 286 286 286 286 286 287 286 286 287
291 291 291 290 289 289 289 289 289 288 288 288 287 287 286 286 286 285 285 282 285 284 284 284 284 285 286 286 285 287 287 286 286 286 285 285 285 286 285 283 285 285 285 285 285 286 285 285 284 283 283 285 285 285 283 283 283 283 282 283 283 284 282 282 282 283 284 284 284 285 284 284 284 285 284 285 285 285 285 285 285 286 285 285 285 285 285
Wind_Speed
18 19 20 18 17 16 17 18 19 19 18 18 16 16 19 18 15 17 15 16 13 16 23 22 22 22 21 19 11 18 14 17 15 15 15 15 15 14 14 14 13 13 13 10 8 8 7 7 7 7 6 6 6 6 6 8 8 8 7 6 5 5 4 4 4 4 5 5 7 9 10 11 11 12 13 14 15 15 15 16 15 16 17 17 18 19 19
17 18 18 17 18 16 17 19 20 20 20 19 20 20 20 20 20 20 19 20 19 16 21 23 23 22 19 19 18 13 17 12 13 15 16 15 15 14 14 13 13 12 11 9 8 7 7 7 7 7 6 6 7 7 8 8 8 8 6 6 5 4 4 3 4 4 5 6 8 9 8 10 12 13 14 15 15 16 16 16 16 16 17 17 18 19 20
15 19 18 18 18 17 19 19 21 21 20 20 19 19 18 21 20 20 20 20 19 17 22 24 21 18 18 20 22 19 16 21 22 18 16 15 14 14 13 12 10 9 9 8 7 7 7 6 6 6 6 6 7 8 8 9 8 7 6 5 4 4 3 3 4 5 6 6 8 8 8 10 12 13 15 14 15 16 16 16 17 17 16 18 18 18 19
15 16 15 16 16 17 17 20 21 21 19 18 16 15 13 14 15 15 16 16 16 17 20 19 20 21 21 22 20 18 19 20 21 16 16 15 14 13 11 9 9 9 9 8 7 7 4 4 5 6 6 7 8 9 9 8 7 7 5 4 3 3 3 3 4 5 5 7 7 8 9 11 12 13 14 15 15 16 16 17 16 15 16 18 18 18 17
14 17 15 15 13 14 16 18 18 19 19 19 17 16 16 14 14 14 16 18 15 17 16 16 19 19 18 18 18 19 21 21 16 15 15 13 11 10 10 10 10 8 8 6 5 4 4 3 3 6 7 7 9 9 9 7 7 6 5 4 3 3 3 3 4 5 6 7 8 9 9 11 12 13 14 15 15 15 16 16 16 17 18 18 18 18 18
14 16 14 12 11 14 16 9 7 9 11 12 14 13 13 15 13 13 16 17 18 20 17 17 18 16 16 13 10 5 6 7 9 13 12 11 10 10 9 9 8 7 5 4 3 3 1 1 2 3 6 8 8 8 8 8 7 6 5 4 3 3 3 3 4 5 6 7 9 9 9 11 12 14 14 15 15 15 15 16 16 17 18 19 19 19 18
14 13 11 14 15 17 10 11 12 11 12 12 15 17 18 20 20 21 21 21 21 23 20 19 19 18 19 10 7 8 8 8 13 11 11 11 11 11 9 8 7 5 4 3 2 2 3 2 4 5 6 8 9 9 8 7 6 5 4 3 3 2 3 3 4 5 7 8 8 9 10 12 13 14 15 15 16 15 15 16 17 17 17 17 17 17 18
12 13 12 12 14 9 11 14 15 16 19 19 15 17 17 18 18 18 19 21 22 21 22 23 19 19 15 8 8 8 8 7 11 10 10 11 10 10 8 7 6 4 3 1 1 2 0 2 5 7 8 9 9 9 8 7 6 4 3 3 3 2 3 3 5 6 7 8 8 9 11 12 14 15 15 16 17 16 14 15 15 16 16 16 18 19 19
14 12 14 16 13 18 18 13 4 4 4 5 5 11 13 14 14 13 16 17 18 20 20 16 17 8 3 7 10 10 6 6 7 8 9 10 10 9 7 6 5 4 2 1 1 2 3 4 5 7 9 9 9 8 8 6 5 4 3 3 3 2 3 4 5 7 7 9 9 10 12 13 14 15 16 17 16 14 14 15 15 16 16 16 17 18 19
11 13 13 12 12 13 9 3 1 1 2 5 3 5 14 11 3 5 9 11 11 13 14 16 12 3 3 7 11 9 8 9 9 9 10 10 9 8 7 5 4 2 2 0 1 2 3 4 6 8 10 10 9 8 7 6 5 4 3 3 2 3 4 4 6 7 8 9 10 11 12 13 14 14 15 15 16 14 14 16 17 17 17 17 18 18 19
10 11 12 10 11 10 9 3 5 1 3 1 4 9 16 3 4 11 11 14 14 12 11 16 7 3 8 11 10 11 12 9 8 11 10 9 8 6 5 4 3 2 2 1 3 2 3 5 7 9 11 11 10 9 7 6 4 3 2 2 2 3 3 4 6 7 8 9 9 11 13 13 13 14 15 17 17 16 16 16 17 16 16 16 17 18 18
12 12 12 14 8 9 3 3 5 7 6 3 4 11 9 7 15 13 14 15 17 16 13 13 8 7 11 11 8 11 11 12 11 10 9 8 7 6 5 5 3 1 1 2 3 2 3 5 7 10 10 10 9 7 6 5 4 3 1 1 2 2 3 4 5 6 7 9 9 10 12 13 13 14 15 17 18 17 17 15 16 16 16 17 19 16 16
12 12 11 10 10 9 6 5 8 8 6 4 8 13 7 15 17 15 12 12 12 15 15 12 10 10 12 6 8 7 11 12 9 7 6 6 5 4 4 5 3 2 2 1 2 2 2 4 8 9 9 9 9 7 6 4 4 2 0 1 1 3 4 4 5 6 7 8 10 11 11 12 12 13 15 16 17 17 17 16 17 17 19 18 16 16 15
11 12 12 12 11 4 3 5 10 6 6 8 9 8 11 13 16 16 15 15 13 11 13 11 11 10 12 7 13 15 13 9 8 8 7 6 5 4 3 4 1 1 1 1 2 2 2 6 9 9 9 9 8 7 5 4 3 2 1 0 1 2 3 4 5 6 7 9 9 9 11 12 13 13 15 16 15 17 16 16 18 19 19 16 15 15 15
8 9 11 10 13 3 4 10 12 2 6 7 9 12 13 12 13 15 14 12 12 10 12 12 12 9 9 7 10 12 10 9 9 7 7 5 3 3 2 1 2 1 2 2 2 1 3 6 9 9 9 10 8 6 5 4 4 2 2 1 1 2 3 4 5 6 7 8 9 9 11 12 12 12 14 15 16 17 17 18 18 19 18 16 15 15 15
10 10 10 7 4 7 10 9 8 4 7 10 12 11 13 12 11 12 12 12 9 8 10 11 9 8 11 7 7 8 8 8 7 7 5 4 2 2 1 1 1 1 2 3 2 3 3 6 8 9 9 9 8 6 5 5 4 3 2 0 1 2 4 4 5 6 7 7 8 9 11 12 12 13 13 14 15 15 16 16 16 17 17 16 14 14 15
3 8 11 12 14 15 14 12 9 11 12 11 13 12 13 9 10 11 12 13 12 12 10 10 7 9 9 8 5 7 6 7 6 6 5 3 2 1 1 1 1 2 2 1 3 4 4 7 8 9 8 9 9 6 6 5 4 3 1 0 1 3 4 5 5 5 6 7 8 9 10 11 12 12 12 13 13 15 16 16 16 16 16 16 15 15 15
11 14 16 17 17 15 12 10 9 11 10 11 12 11 9 8 9 10 11 13 13 12 11 10 7 7 9 8 6 5 5 6 6 4 3 3 3 2 1 1 2 2 1 2 4 5 6 7 8 7 7 7 8 7 6 5 5 4 2 1 2 4 5 5 5 6 7 7 8 9 10 10 10 11 10 10 12 14 15 14 15 15 15 14 13 14 15
7 9 6 9 11 11 14 13 13 10 6 5 6 7 8 10 10 11 11 11 11 10 11 11 8 7 10 5 5 5 4 5 5 4 5 4 3 3 3 4 2 0 0 3 5 6 7 7 7 8 7 5 6 7 7 6 5 4 3 2 2 3 4 5 5 5 7 7 8 8 9 9 9 10 10 9 10 11 11 13 14 14 14 13 12 11 11
11 14 15 16 15 16 14 12 11 7 8 8 4 8 10 10 10 9 11 11 10 8 11 7 6 7 4 3 6 5 4 5 5 5 5 4 4 4 4 4 3 1 0 2 4 6 8 7 8 8 8 7 8 7 7 6 6 5 4 3 3 4 5 4 5 6 7 5 6 7 8 9 9 10 11 10 10 10 10 11 12 13 14 14 14 13 12
14 16 17 16 15 13 10 9 6 8 4 6 10 12 12 11 10 11 11 10 10 10 10 9 5 3 2 2 4 2 4 5 5 6 5 5 4 3 3 4 3 4 3 1 1 4 6 7 8 9 8 8 8 8 7 7 5 5 4 2 2 3 4 4 5 5 6 6 7 7 8 8 8 9 11 9 10 10 6 7 11 13 14 13 13 12 11
13 11 10 8 9 10 8 11 12 9 8 10 12 12 12 11 10 10 11 11 9 7 7 6 1 4 3 3 3 3 2 5 6 6 5 4 3 3 3 2 3 4 4 3 2 4 5 6 8 9 8 7 7 8 8 7 6 5 3 3 2 3 4 4 5 5 6 6 7 7 7 8 9 10 9 7 7 8 9 9 11 14 15 13 15 14 10
12 11 13 12 13 14 14 13 10 11 12 10 11 10 10 8 8 7 8 11 7 6 6 4 7 2 5 5 3 4 4 4 5 4 5 3 3 3 2 3 3 5 5 5 5 7 7 7 7 8 8 8 9 8 8 7 6 4 3 2 3 3 3 4 4 5 5 6 6 7 6 7 8 9 11 11 10 10 11 11 11 14 15 18 19 18 14
17 16 15 13 11 13 13 14 11 5 9 10 9 9 8 8 8 9 8 10 6 3 6 9 8 3 4 4 4 5 5 5 5 5 4 3 2 2 2 3 3 5 6 7 7 7 7 6 7 8 8 10 9 9 8 8 6 4 3 3 3 3 3 3 2 3 5 5 6 7 7 6 7 9 10 12 12 11 11 12 12 12 13 16 19 18 19
13 11 12 13 13 14 13 13 11 11 7 5 8 9 9 10 9 8 8 7 6 6 7 9 8 3 4 6 6 6 7 6 6 4 3 4 5 3 2 3 4 6 6 7 7 6 5 5 6 7 10 9 8 8 9 8 6 5 4 3 3 3 3 2 3 2 5 5 6 6 7 7 6 8 10 11 12 14 12 11 11 10 11 15 17 18 18
13 12 12 12 12 12 12 11 11 10 6 9 10 8 8 7 6 7 8 6 5 8 8 6 3 1 5 7 8 9 9 9 6 4 6 6 5 4 5 6 6 6 7 7 6 6 5 5 5 6 8 9 9 9 9 8 7 5 5 4 2 3 4 4 3 4 5 5 6 6 6 7 6 7 8 9 10 11 13 13 12 11 12 15 15 17 17
6 8 10 11 12 11 8 8 8 8 10 10 11 10 8 8 6 5 6 5 4 4 5 7 3 2 6 8 10 9 10 9 8 8 8 9 8 7 6 6 8 9 8 6 6 5 4 2 5 7 9 9 7 7 8 7 6 6 5 4 4 3 1 5 4 4 4 5 6 6 7 7 6 6 6 8 9 10 11 12 12 12 11 12 12 15 14
11 10 8 9 9 8 8 10 12 12 11 11 10 10 9 6 6 6 5 4 6 4 3 5 4 2 8 9 10 11 10 10 10 10 10 9 8 7 8 8 8 8 6 5 5 2 2 3 3 6 9 8 7 7 8 7 6 6 6 5 3 1 2 4 3 3 4 4 5 5 6 6 6 5 5 5 8 9 9 9 11 11 11 11 8 10 15
8 7 7 7 8 9 10 11 12 12 10 9 9 8 9 8 7 6 6 3 4 2 4 3 2 5 8 9 9 10 9 9 10 12 11 10 9 9 9 9 9 8 8 6 5 4 3 4 3 3 5 4 5 6 8 8 7 6 6 5 3 2 1 3 3 3 3 4 4 5 4 4 5 6 5 5 5 6 8 9 9 9 11 10 11 11 12
7 6 5 6 7 8 11 11 11 11 10 9 10 9 9 8 7 6 3 8 7 1 2 5 4 7 8 10 10 10 10 10 10 10 12 12 12 11 10 8 8 8 8 8 7 5 4 3 3 4 4 3 2 3 5 6 5 5 5 4 2 2 1 2 3 3 2 3 4 4 3 4 5 5 5 6 6 5 5 7 7 9 10 11 10 12 13
5 3 5 7 8 9 10 11 11 11 10 9 9 10 9 8 8 7 3 3 4 7 4 4 6 8 10 10 10 9 9 9 10 11 12 12 12 12 12 12 11 9 9 8 7 6 5 6 6 6 5 4 3 2 2 1 1 2 4 5 4 5 5 2 4 5 6 3 3 4 5 4 4 4 5 6 6 5 5 5 6 8 9 9 10 11 12
6 5 6 6 5 7 8 8 9 10 11 10 10 10 8 7 7 7 5 6 3 4 6 7 8 8 9 10 10 10 9 10 10 11 12 12 13 13 12 12 12 10 10 8 7 7 6 6 7 6 5 4 4 3 2 3 3 2 3 2 2 3 3 2 3 2 3 3 3 4 3 5 5 5 5 5 6 5 5 5 6 6 7 8 9 9 10
6 3 4 5 7 7 8 8 9 11 11 9 4 4 5 5 4 6 3 8 5 4 6 7 7 7 9 10 10 10 10 11 11 12 12 13 13 13 12 10 11 11 10 8 8 8 8 8 7 6 6 6 4 3 4 4 1 1 3 3 2 1 2 2 3 6 5 4 3 4 4 4 5 4 4 4 5 5 5 5 5 5 6 7 7 8 8
7 6 6 8 8 6 7 8 8 9 9 9 8 5 2 7 7 8 4 1 6 7 7 8 8 8 9 10 11 10 11 11 9 9 11 13 13 12 12 12 10 10 9 9 9 9 9 9 8 7 7 6 5 5 6 5 3 3 3 4 3 1 1 2 2 5 5 3 2 1 3 2 4 5 4 4 4 5 6 5 5 4 5 5 4 5 8
7 9 10 10 9 9 8 8 8 8 9 8 7 7 9 7 11 8 5 7 9 7 6 8 10 11 11 11 11 12 13 13 11 11 11 12 13 13 12 13 12 12 12 12 11 10 10 10 9 7 6 6 5 4 4 5 4 2 2 2 2 2 2 2 5 4 3 5 3 2 1 2 2 2 2 3 4 4 5 5 5 5 4 4 4 3 4
8 10 10 10 10 11 12 11 11 11 9 10 8 9 12 13 13 11 10 9 7 6 7 10 12 14 14 14 14 15 14 12 11 11 11 10 9 10 13 13 13 12 10 12 12 11 10 9 10 10 6 7 7 7 8 7 4 3 0 1 1 1 1 3 3 3 1 4 4 1 1 2 2 2 3 3 4 5 5 5 5 5 4 4 3 3 2
9 10 10 11 10 11 10 9 9 10 9 10 12 13 14 14 13 11 10 10 8 7 9 11 13 14 14 14 15 15 14 13 13 14 13 12 11 13 13 12 11 10 10 11 11 10 8 8 9 9 7 7 7 7 8 6 3 4 4 2 2 2 2 2 3 3 3 3 3 1 1 2 1 1 1 4 5 5 5 5 5 4 4 3 2 2 2
10 11 12 11 10 10 10 8 9 10 10 13 13 13 13 13 13 11 11 11 10 9 10 12 14 14 14 14 15 16 16 16 16 15 14 14 13 14 13 12 10 9 9 8 8 8 9 10 8 9 9 8 8 8 8 9 7 5 3 3 2 1 1 1 1 1 3 3 1 1 0 1 0 1 2 4 4 5 5 5 5 5 4 4 3 2 3
11 11 11 10 10 10 10 9 10 10 11 13 13 12 11 12 12 12 12 12 11 10 10 12 13 14 14 14 13 13 15 15 15 15 15 14 13 14 12 11 10 9 7 7 8 9 10 11 7 10 10 10 10 10 10 11 12 6 5 4 3 3 1 0 1 1 1 1 2 2 1 1 1 1 2 3 3 2 3 2 3 3 4 5 4 4 3
9 9 10 10 10 10 10 10 10 11 11 11 13 12 11 13 12 12 12 12 11 11 12 12 12 11 11 11 11 11 10 12 12 13 13 13 14 14 13 12 12 11 10 10 9 9 11 13 11 10 10 10 11 9 8 8 8 6 7 6 6 5 5 3 3 2 2 1 1 1 0 1 1 1 1 1 2 3 3 2 3 4 5 5 4 4 3
11 10 10 10 10 10 11 11 11 12 12 13 12 11 12 12 12 13 13 12 10 11 13 12 12 12 11 10 10 10 10 10 10 11 11 12 12 11 11 11 10 10 11 9 7 8 8 10 10 10 10 10 10 11 9 8 8 8 8 8 7 7 6 6 5 5 4 3 1 2 2 1 1 0 1 1 2 2 3 3 4 4 5 5 4 4 4
13 13 12 12 12 12 12 11 11 13 14 13 13 13 13 13 13 12 11 11 11 12 12 13 14 11 9 9 9 11 12 13 13 14 13 12 10 9 10 9 10 10 14 11 7 9 9 10 10 10 11 11 9 15 16 7 8 8 8 8 8 7 7 7 6 6 5 4 4 4 2 2 2 2 1 1 2 2 3 3 4 4 4 5 4 4 4
14 14 14 13 13 14 13 12 12 13 14 14 13 13 13 13 13 13 13 11 11 9 10 10 11 11 11 10 10 10 10 10 12 13 13 13 13 12 9 8 9 11 14 8 9 9 9 9 9 9 13 12 10 16 14 8 8 8 8 8 7 8 8 8 8 7 7 7 6 6 6 5 3 3 1 1 2 2 2 3 3 4 4 4 4 4 4
13 12 12 12 13 12 12 12 13 14 15 13 12 12 14 14 12 11 10 10 10 10 9 10 11 11 11 12 11 9 9 7 6 7 8 8 10 12 12 9 8 9 13 9 8 8 8 8 9 15 16 17 17 16 9 8 8 8 8 8 7 8 8 8 8 8 8 8 7 7 7 6 6 6 6 5 4 4 4 4 4 4 4 3 3 4 4
13 12 13 13 13 12 12 12 14 15 13 11 12 12 12 12 12 12 12 12 12 11 10 11 11 10 10 10 9 8 9 9 10 8 7 7 8 8 10 10 9 8 9 11 7 8 8 10 13 17 16 17 17 16 7 8 8 8 8 8 8 7 7 8 8 8 8 8 8 7 7 6 7 7 6 7 7 6 6 6 5 5 4 4 4 4 4
12 12 12 12 13 13 12 13 12 12 12 13 12 12 12 11 11 11 11 12 12 10 10 10 10 10 10 8 7 6 8 8 9 9 8 7 7 6 8 9 7 8 10 8 7 7 8 12 15 17 17 16 17 9 7 7 7 7 8 8 8 8 8 7 7 7 7 7 7 7 7 7 6 7 7 6 7 7 7 8 6 6 6 6 6 6 5
11 10 10 11 11 12 12 12 12 12 12 11 11 9 9 10 10 9 10 10 10 10 9 9 10 10 9 9 8 8 7 6 6 7 7 6 5 6 7 9 10 11 10 6 6 7 9 11 14 15 15 15 13 7 7 7 8 8 8 8 8 8 8 8 8 7 7 7 7 6 6 6 6 6 6 7 7 7 7 7 7 7 7 6 5 5 5
10 10 9 9 10 10 10 10 10 10 11 10 9 8 8 9 9 9 8 8 8 8 8 7 7 8 8 7 8 8 7 6 5 6 6 7 6 7 7 8 9 13 13 2 5 9 15 15 13 15 14 13 8 7 8 8 8 8 8 8 8 8 9 8 8 8 7 7 7 7 7 7 7 7 6 7 7 7 7 7 7 8 8 8 7 7 6
9 9 8 8 9 9 9 9 9 9 8 8 8 7 7 7 8 8 8 8 7 6 6 6 6 6 6 6 6 6 6 6 6 5 5 6 6 7 7 7 9 11 8 7 8 6 10 11 12 14 13 10 8 8 7 7 8 7 7 8 8 8 8 9 9 9 8 8 8 8 8 8 8 8 7 7 7 7 7 7 7 8 8 8 8 7 7
7 7 6 7 7 7 6 6 7 7 6 6 7 6 6 6 6 7 7 6 6 5 5 5 5 5 5 5 5 5 6 6 6 7 6 7 7 7 7 7 8 10 10 8 8 7 8 11 12 13 11 8 8 8 8 8 7 8 7 8 8 7 8 8 8 9 9 8 8 8 8 7 8 8 8 7 8 7 7 7 7 8 10 7 7 7 7
6 6 6 6 7 7 8 8 7 6 6 6 6 5 5 5 5 6 6 7 5 6 5 4 5 5 5 5 5 5 5 5 6 7 6 6 6 7 9 8 8 8 7 7 7 7 7 8 8 9 9 8 7 8 8 8 7 7 7 7 8 8 8 8 8 9 9 9 8 8 8 8 8 8 8 8 8 8 8 8 8 8 8 8 8 8 7
7 7 7 7 7 7 7 7 7 6 6 5 5 5 5 5 4 5 6 7 5 6 5 5 4 5 5 5 5 5 5 5 5 5 5 6 6 6 6 7 7 6 7 7 7 7 7 7 8 10 10 8 7 7 8 9 8 7 7 7 7 7 8 9 9 8 8 9 8 8 9 9 8 8 8 9 9 9 9 9 9 9 9 9 8 8 8
Wind_Direction
273 276 280 283 283 280 278 277 277 276 275 268 261 255 261 261 256 265 276 272 266 272 276 279 279 277 267 261 269 266 244 243 228 228 228 222 221 224 227 231 233 234 236 227 211 170 159 153 157 161 161 157 160 162 163 156 159 163 166 176 186 199 208 230 248 264 279 285 289 293 290 294 295 293 291 290 289 287 285 284 281 279 277 275 273 271 269
277 275 277 280 279 277 274 272 271 269 267 265 263 266 264 261 261 263 261 264 257 256 264 264 262 265 276 281 289 290 283 283 254 231 229 225 227 230 231 230 229 226 219 205 179 162 160 174 168 167 165 166 163 164 162 157 160 161 166 175 192 199 219 235 255 271 281 286 288 290 299 297 296 294 293 292 291 289 288 286 284 282 279 275 272 270 270
271 271 273 274 272 275 274 272 271 270 268 269 268 265 259 258 261 260 259 257 263 256 255 260 263 267 260 260 253 254 240 243 246 233 228 228 230 230 230 226 213 188 179 177 178 184 189 177 172 170 167 169 164 164 161 163 163 165 170 178 188 203 233 251 266 276 281 289 295 298 298 292 293 298 298 297 296 294 293 290 287 285 281 280 276 272 269
271 266 263 262 268 273 276 274 270 264 262 263 256 254 252 255 258 257 251 254 259 260 257 257 261 255 253 252 249 244 253 253 244 231 226 224 222 227 217 188 174 177 179 181 195 205 197 172 172 171 170 171 163 168 163 166 163 163 169 180 201 215 241 258 265 278 289 298 298 296 292 296 302 302 302 301 300 297 295 293 290 288 284 281 279 277 271
268 273 278 282 291 289 274 255 249 252 248 247 255 262 266 259 261 264 261 260 262 263 267 272 267 257 247 241 247 247 236 236 230 221 220 220 216 200 178 171 172 175 187 181 171 155 196 190 192 179 170 172 170 168 162 165 154 164 174 187 203 222 249 266 273 282 297 299 297 297 301 304 305 308 308 308 306 304 299 296 294 289 286 283 280 278 274
269 274 281 281 272 263 255 274 289 258 257 260 259 260 262 260 254 249 255 267 275 275 274 270 267 250 253 249 239 251 312 282 231 220 208 198 177 160 159 162 163 160 168 176 174 149 113 168 198 153 174 170 164 162 160 159 164 176 186 188 209 233 252 268 278 294 302 301 302 302 302 305 309 312 314 312 309 303 300 297 292 289 285 282 279 277 273
263 270 270 268 258 252 270 275 271 273 282 281 275 275 270 267 264 263 266 265 262 268 271 270 268 264 262 250 278 278 253 218 233 208 177 165 156 154 150 155 160 150 151 158 173 195 218 170 157 168 168 168 161 160 159 164 172 179 193 213 225 236 260 277 285 299 301 302 304 303 302 305 310 313 317 316 312 307 302 297 293 289 286 281 276 273 272
265 262 256 253 248 279 292 281 284 288 276 268 279 281 274 271 274 275 269 269 272 270 268 268 265 260 255 272 267 273 265 243 218 177 168 161 156 159 158 148 143 145 139 142 246 291 296 197 191 188 174 166 164 163 167 169 173 186 199 224 246 249 273 280 290 303 301 302 302 301 304 307 310 314 319 320 316 310 299 293 289 285 282 277 275 274 272
257 257 262 262 285 286 280 283 337 7 342 356 303 289 286 287 294 296 289 290 290 287 285 292 281 249 247 266 267 253 232 222 206 175 159 147 145 132 133 136 129 116 114 226 316 322 280 255 213 191 168 166 164 164 171 177 184 184 205 250 277 278 271 280 294 301 299 302 304 302 307 310 313 318 320 319 314 307 299 298 294 292 288 284 281 278 276
254 266 270 269 263 264 273 89 199 308 291 309 316 290 287 295 18 6 346 327 323 314 309 296 284 49 336 267 253 243 198 180 181 143 130 130 131 134 130 130 129 144 137 222 277 298 283 237 219 182 164 165 165 171 179 178 188 204 219 244 278 294 289 290 298 303 302 305 302 303 308 312 318 319 318 315 315 312 306 304 300 298 294 290 286 281 277
259 258 261 262 268 264 284 182 221 297 32 348 339 293 279 332 4 346 340 331 330 330 327 316 296 252 247 244 248 232 176 167 162 144 143 142 134 131 131 126 120 124 96 38 315 297 264 235 201 178 166 167 173 174 178 186 194 218 237 282 302 305 300 292 297 302 301 302 305 306 310 316 320 318 317 319 318 315 311 308 303 300 298 293 289 284 278
253 258 257 263 255 270 272 328 324 342 338 320 266 281 271 37 332 341 342 333 329 331 334 317 287 238 252 251 238 171 161 176 176 150 142 139 147 149 140 131 130 125 181 221 227 235 244 229 186 170 167 174 179 175 175 183 195 217 231 326 319 302 284 291 293 300 308 307 307 310 313 318 319 318 319 319 319 317 315 312 306 303 300 298 293 286 282
258 255 266 272 272 265 286 342 349 338 326 290 263 258 327 342 328 332 336 326 332 329 333 335 310 274 281 271 119 137 165 183 143 124 119 118 117 110 110 96 81 238 216 207 276 281 250 202 176 168 173 178 177 177 173 184 202 186 97 287 297 301 294 291 303 316 321 319 318 315 314 318 319 318 317 318 320 321 318 313 310 308 306 303 295 290 288
264 267 263 263 272 324 354 15 340 354 307 255 267 344 330 322 325 325 328 326 332 330 328 329 315 321 308 142 144 159 180 152 140 134 128 120 118 111 105 99 191 247 274 243 238 214 212 193 172 168 179 181 178 169 177 189 164 147 151 75 288 284 299 313 323 325 325 323 319 315 319 320 322 320 316 318 320 320 317 314 315 314 313 308 300 295 294
271 262 265 268 266 107 338 331 318 137 271 306 331 314 311 321 323 324 328 327 325 332 318 318 308 305 297 227 147 144 131 128 120 116 102 98 98 79 70 129 103 97 262 243 222 218 181 186 175 175 183 183 174 169 180 161 146 150 114 247 283 300 318 319 330 326 327 324 321 322 322 325 324 318 315 320 322 322 321 321 321 322 318 313 303 301 302
274 259 250 254 323 333 316 324 303 309 291 301 304 309 304 314 317 319 320 313 317 315 301 298 302 298 300 267 126 123 118 106 105 104 107 105 94 92 52 55 75 36 279 266 223 192 178 180 178 178 184 183 170 172 163 138 140 141 154 219 306 299 317 323 335 329 330 325 324 323 326 328 326 320 318 322 322 326 327 327 328 326 325 321 313 309 308
244 277 285 292 305 308 308 299 292 294 301 303 299 298 295 301 310 313 310 308 308 307 304 296 290 291 295 258 157 131 116 116 113 115 115 101 85 69 66 15 21 287 271 275 242 193 178 180 181 179 184 184 169 169 137 145 147 141 130 161 281 315 328 334 335 326 332 328 328 328 326 329 329 326 323 327 328 334 334 333 333 332 330 328 322 316 313
273 273 271 277 274 278 279 275 285 291 296 293 297 288 289 295 303 311 309 311 307 306 307 296 295 283 285 250 123 116 122 120 111 101 101 116 118 108 86 84 44 349 294 227 221 201 175 177 178 178 180 185 174 146 141 137 126 118 123 84 357 339 347 334 336 327 333 329 336 328 328 331 332 326 321 329 336 341 341 338 338 338 336 330 324 322 318
292 269 236 244 262 264 275 287 290 293 294 17 3 297 300 312 311 311 309 311 309 302 302 285 268 281 257 218 128 129 125 122 118 117 111 109 105 87 66 61 35 183 257 214 188 189 175 170 176 171 178 178 171 142 141 132 124 122 100 48 12 358 352 335 333 335 326 345 332 323 336 334 333 335 332 328 337 339 334 338 339 338 334 329 327 321 318
249 266 277 282 285 287 288 286 281 293 340 327 303 325 323 320 310 307 313 311 305 312 295 263 243 241 304 261 175 139 134 124 122 113 107 107 105 91 71 72 43 57 177 234 191 194 179 167 173 169 168 174 164 144 138 128 124 119 93 46 10 11 350 341 337 343 330 331 307 331 336 335 334 340 343 336 333 334 329 333 335 337 338 338 339 332 326
267 272 274 276 279 282 288 298 27 331 319 316 325 320 324 323 324 330 326 319 322 319 293 261 179 131 204 349 39 88 127 127 112 102 102 101 95 95 60 55 29 28 24 6 205 194 174 162 167 165 159 163 162 147 136 126 127 111 101 107 29 12 351 350 350 341 327 333 335 330 333 332 337 341 341 334 333 328 314 320 330 334 339 342 341 334 327
263 267 279 303 300 295 303 301 301 297 326 324 319 318 318 332 329 341 328 327 343 346 325 348 56 179 127 107 106 99 97 97 99 99 91 92 69 58 50 360 11 26 26 44 114 141 137 144 155 154 151 156 162 156 137 129 124 120 118 105 69 40 11 7 359 339 336 336 338 332 330 333 332 337 339 330 317 317 321 312 319 322 334 339 343 346 338
274 288 292 301 301 293 287 297 306 315 317 318 314 315 317 325 331 332 318 319 342 348 316 297 293 268 131 131 137 118 106 117 106 89 74 48 45 12 10 343 21 27 34 69 104 114 118 129 134 139 150 161 159 145 134 130 131 133 124 103 66 53 39 28 7 325 333 340 337 333 331 331 336 337 336 344 344 331 318 314 318 320 326 340 347 352 355
278 280 281 287 292 295 305 302 311 313 294 302 309 311 315 319 324 329 317 322 329 299 287 297 295 260 136 112 97 107 117 115 100 77 63 53 48 18 357 20 26 36 57 77 86 96 106 120 134 148 160 161 150 141 135 131 138 132 118 82 66 51 40 14 6 337 333 337 335 336 334 337 338 340 342 343 347 353 347 341 334 324 330 345 352 354 359
277 289 297 299 297 296 296 294 300 300 292 312 315 315 315 316 315 322 314 319 290 268 269 288 290 249 124 101 95 97 99 88 73 67 88 76 59 15 41 60 50 55 68 78 87 98 114 127 143 158 160 150 142 140 141 144 149 143 118 96 74 52 20 0 341 345 333 343 337 342 340 337 333 347 349 349 349 348 350 347 340 338 349 352 353 353 0
279 284 293 298 296 292 290 292 284 278 316 310 304 301 297 284 282 297 291 274 239 256 267 285 261 118 96 100 104 103 93 83 70 56 58 45 56 66 70 65 67 80 86 91 90 97 114 131 145 155 154 152 149 150 147 152 153 142 128 104 71 32 28 352 340 353 348 345 342 340 341 337 336 336 349 352 355 354 350 353 353 355 359 357 355 353 358
275 279 289 288 285 290 303 304 303 332 312 304 298 295 290 283 274 270 274 270 252 254 286 295 298 82 92 92 95 91 91 90 79 67 59 56 57 61 69 79 80 83 87 77 76 70 79 131 152 161 162 161 146 143 152 154 152 139 127 122 122 111 229 305 332 356 347 346 346 342 341 342 342 341 345 354 359 4 359 357 356 358 355 352 351 354 358
283 277 266 274 281 295 303 302 304 306 301 299 296 294 297 289 276 272 266 217 227 217 243 256 249 135 107 114 114 107 95 82 74 62 56 57 64 71 73 74 76 78 74 68 70 67 95 112 143 168 172 155 142 146 153 154 154 152 146 151 179 136 140 215 284 353 350 349 344 348 344 343 337 329 329 332 359 10 8 1 3 2 2 357 342 346 359
268 257 255 257 277 290 294 297 295 295 299 298 295 292 290 286 283 276 271 183 206 184 240 209 210 124 114 115 107 100 93 84 78 67 60 62 66 70 76 74 75 74 69 62 51 44 62 64 96 144 144 144 150 153 163 165 169 168 163 162 174 137 27 15 347 352 1 342 343 348 323 308 327 347 339 338 344 7 14 9 357 358 2 356 357 3 6
284 312 307 291 283 286 292 293 299 304 307 306 300 302 296 286 278 270 222 173 193 231 217 155 141 121 122 113 103 96 94 90 86 80 70 64 60 58 63 75 77 64 53 41 34 26 35 58 77 86 91 95 110 148 167 178 182 176 173 170 180 161 150 12 330 320 332 348 355 275 273 326 349 347 349 346 349 0 16 14 358 2 6 3 4 7 7
316 310 286 285 286 289 291 297 304 307 310 312 310 310 306 282 266 261 189 154 170 160 182 130 110 108 107 104 102 96 95 93 89 81 72 65 61 61 58 55 56 50 44 28 16 17 36 46 42 47 47 51 46 65 110 161 187 169 199 190 178 71 49 59 299 319 332 349 336 329 342 332 353 353 350 351 359 7 15 28 16 6 4 8 8 7 3
298 295 283 289 315 314 320 330 330 324 320 319 321 316 313 303 278 243 165 142 116 112 119 107 94 93 99 106 106 103 100 92 85 80 74 67 62 58 57 59 63 59 53 38 24 22 27 46 44 40 40 57 61 43 67 77 55 349 279 278 260 181 145 282 272 267 293 305 311 318 340 342 355 360 8 1 4 6 19 24 33 20 4 7 7 7 358
298 320 357 360 352 358 352 349 339 330 327 329 315 317 300 262 91 71 110 133 151 145 103 95 96 103 114 117 116 110 100 88 80 76 76 71 65 61 62 62 61 59 53 42 31 28 29 30 32 20 24 31 36 55 89 91 275 296 299 298 277 54 114 205 295 297 274 274 295 344 340 350 346 5 12 354 354 1 20 25 35 42 27 15 8 1 353
50 47 46 43 33 20 6 355 344 339 337 340 342 5 23 112 121 120 94 12 110 109 101 104 111 114 124 127 121 107 95 82 67 63 68 75 74 74 70 68 64 60 56 47 38 31 26 21 8 9 18 30 35 38 41 54 36 20 316 301 315 353 323 284 240 265 292 295 299 243 276 328 339 3 0 8 5 11 15 19 31 39 51 38 14 352 348
63 71 70 70 65 55 40 30 15 11 6 13 20 53 89 108 105 84 76 91 74 78 93 108 112 111 110 114 109 95 85 83 79 70 64 67 71 68 68 66 60 52 48 42 38 31 24 18 8 1 14 22 32 35 37 54 48 15 21 355 6 349 324 294 288 299 316 315 308 312 326 325 1 357 338 343 3 2 23 25 25 28 45 47 50 27 354
74 76 76 72 65 59 53 40 34 30 29 29 60 71 73 79 82 87 73 68 76 87 90 94 94 94 102 106 105 98 95 90 86 79 72 63 60 66 64 60 54 48 42 43 34 29 19 18 1 354 12 27 15 24 23 4 342 316 68 127 33 310 290 279 279 296 337 305 307 318 326 23 322 339 348 346 14 14 18 28 26 32 35 39 45 41 31
77 83 82 76 69 58 45 32 24 26 29 33 46 61 64 64 59 47 46 48 47 73 94 93 90 91 94 96 98 100 100 98 92 88 83 81 75 71 67 62 50 44 42 41 18 13 14 12 343 359 30 37 29 21 23 358 309 300 286 249 238 275 288 295 328 319 312 288 296 325 342 261 232 49 347 4 24 22 14 26 37 39 38 37 26 26 37
83 84 80 73 67 60 55 46 35 31 35 43 40 42 48 56 57 49 39 33 30 43 72 82 89 94 94 94 93 93 93 91 90 86 83 77 74 72 63 55 47 43 42 29 4 14 18 342 353 40 40 40 35 34 17 4 321 279 302 335 332 307 287 256 261 291 277 280 303 295 277 308 340 62 45 23 29 24 20 29 32 32 42 44 42 29 25
80 78 77 77 75 70 64 54 44 35 32 41 42 43 42 48 48 46 43 34 18 11 44 79 92 93 92 91 88 89 92 94 92 91 86 81 76 71 67 57 54 41 33 357 27 33 10 354 24 43 43 35 33 40 26 359 335 8 18 9 13 16 6 316 289 260 314 315 302 340 11 44 13 35 53 48 28 33 61 27 356 30 43 42 43 45 34
74 68 69 69 67 65 60 51 44 42 36 37 41 39 35 46 47 47 43 37 24 23 28 44 60 70 76 78 76 78 85 93 96 94 90 86 81 77 73 60 46 39 18 353 37 35 13 349 10 37 31 34 29 16 26 355 342 30 23 23 16 24 30 31 39 53 57 359 93 283 117 90 36 20 43 42 43 27 27 41 28 34 44 48 49 49 44
89 88 83 80 75 66 60 54 50 47 47 46 46 43 43 51 55 55 50 46 31 31 36 36 46 53 54 59 63 64 68 66 71 77 82 83 76 69 65 57 38 28 17 356 11 30 29 28 23 15 13 4 28 0 350 4 26 40 32 27 21 20 24 28 32 34 36 35 37 43 61 86 106 152 83 47 49 37 41 28 35 34 42 41 47 55 64
87 86 86 82 79 73 67 63 57 52 50 53 56 57 55 55 62 64 61 57 47 40 40 39 34 32 43 56 63 66 68 69 69 64 55 52 53 65 60 56 34 24 350 340 24 34 29 29 25 22 7 349 348 350 331 338 23 31 35 29 23 22 23 20 27 37 46 41 30 40 50 38 35 52 32 23 56 42 31 23 34 40 43 45 41 43 54
82 81 79 77 77 74 71 65 60 60 60 57 58 60 62 61 62 63 60 54 50 43 37 34 33 30 27 40 57 64 70 79 79 77 73 66 56 50 48 49 37 26 353 5 24 31 30 24 15 9 347 343 337 334 324 3 22 19 27 31 27 22 25 25 21 24 30 39 37 28 17 14 23 33 9 23 34 36 21 18 26 36 28 35 46 43 41
86 85 85 82 79 78 76 72 72 71 70 61 55 57 61 63 57 53 52 53 53 49 45 41 41 42 40 38 39 43 48 51 73 86 86 83 69 54 39 32 30 24 9 357 25 27 29 20 12 350 345 345 342 336 340 20 12 18 15 23 25 27 25 24 25 23 24 26 32 35 29 21 15 12 9 11 8 21 19 4 7 5 8 3 27 34 40
82 82 81 82 83 84 80 79 80 81 80 75 65 60 60 61 59 57 57 56 53 50 46 44 40 39 45 49 50 41 40 40 38 37 52 52 51 45 29 19 24 17 4 345 20 22 30 12 357 355 355 344 341 327 356 16 9 13 9 12 18 20 24 22 19 22 22 24 26 27 31 32 28 18 14 13 6 10 17 5 2 1 358 1 7 11 19
84 83 81 82 84 85 89 92 93 93 89 82 76 68 65 66 66 64 62 63 59 52 46 43 42 36 28 35 56 76 82 63 51 50 52 47 43 37 33 21 18 5 339 346 34 20 12 3 2 0 353 347 335 327 16 7 8 8 12 9 11 11 16 17 15 18 22 20 17 20 21 22 28 30 22 20 16 12 10 356 358 7 7 7 6 12 2
85 83 84 85 90 92 93 90 88 84 81 77 74 73 71 72 73 72 71 71 71 69 62 56 50 42 33 31 28 22 17 34 66 44 32 31 43 48 48 41 19 3 345 15 42 26 19 7 5 357 354 344 330 358 10 8 8 5 8 10 8 11 7 12 11 14 15 20 11 16 24 23 23 26 24 21 21 20 15 11 9 2 1 2 360 15 16
85 88 91 93 91 91 90 86 81 75 72 71 76 79 76 75 73 74 76 79 79 78 74 72 67 60 48 41 42 38 29 15 29 46 29 20 15 16 19 24 18 359 343 8 91 66 37 9 5 0 355 344 352 14 11 14 9 8 6 9 11 13 9 8 7 6 9 15 10 13 13 17 17 22 22 22 22 24 21 18 17 9 2 0 7 9 9
85 89 92 94 97 97 89 85 83 80 77 78 75 73 73 74 70 62 57 54 53 61 69 68 68 67 69 59 43 45 47 37 23 20 21 18 16 16 7 25 37 8 349 359 360 3 31 7 6 3 356 359 14 14 16 15 16 13 14 12 11 17 14 12 12 6 10 14 19 18 16 13 15 15 16 19 19 19 18 19 22 20 6 3 5 2 7
93 93 95 94 92 87 79 77 77 76 77 69 61 54 47 41 47 45 38 35 40 34 43 49 43 42 38 40 48 40 30 30 34 18 11 22 15 19 9 10 22 13 9 359 6 1 17 9 10 8 2 11 16 20 19 17 19 19 17 17 16 17 18 10 14 18 17 18 20 22 21 20 18 13 13 18 17 16 17 15 15 14 4 10 14 5 6
98 96 93 90 81 72 69 67 71 72 70 61 53 42 36 41 60 55 42 9 10 24 16 39 52 34 22 31 33 41 33 20 27 23 9 14 6 34 38 10 23 25 15 16 16 14 11 15 12 7 6 10 16 20 21 18 21 24 22 23 21 20 16 14 14 17 20 17 19 24 22 20 21 20 18 17 15 16 15 16 14 14 14 15 13 10 7
86 92 93 88 85 83 82 80 77 68 60 45 37 31 26 19 29 42 58 34 11 26 14 6 26 43 22 27 16 16 31 23 19 11 25 21 12 11 27 22 22 28 25 27 24 21 19 18 17 19 15 11 12 12 20 25 30 29 25 23 23 26 26 22 16 16 19 21 22 24 25 22 18 20 20 18 16 16 17 18 17 17 17 16 14 13 10